Location: STAR School
(35.3054°N, 111.2976°W)
Time: 18:56:25
(UTC-07:00)

deb Explorer IX - Visible Passes

Search period start: 23 May 2019 00:00
Search period end: 02 June 2019 00:00
Orbit: 538 x 1115 km, 38.8° (Epoch: 22 May)

Date Brightness Start Highest point End Pass type
(mag) Time Alt. Az. Time Alt. Az. Time Alt. Az.
23 May ? 02:13:27 24° E 02:13:27 24° E 02:15:13 10° ENE visible
23 May ? 03:54:50 15° W 03:58:02 55° N 04:02:22 10° ENE visible
24 May ? 01:52:42 16° ENE 01:52:42 16° ENE 01:53:35 10° ENE visible
24 May ? 03:34:05 22° WNW 03:36:26 54° N 03:40:40 10° ENE visible
25 May ? 01:31:57 10° ENE 01:31:57 10° ENE 01:31:59 10° ENE visible
25 May ? 03:13:20 33° WNW 03:14:51 53° N 03:18:59 10° ENE visible
26 May ? 02:52:36 46° NW 02:53:16 53° N 02:57:19 10° ENE visible
26 May ? 04:36:18 10° WNW 04:40:22 67° NNE 04:44:50 10° E visible
27 May ? 02:31:54 52° N 02:31:54 52° N 02:35:41 10° ENE visible
27 May ? 04:14:44 10° WNW 04:18:46 68° NNE 04:23:07 10° E visible
28 May ? 02:11:17 37° NE 02:11:17 37° NE 02:14:04 10° ENE visible
28 May ? 03:53:09 10° WNW 03:57:11 68° NNE 04:01:25 10° E visible
29 May ? 01:50:45 23° ENE 01:50:45 23° ENE 01:52:28 10° ENE visible
29 May ? 03:32:09 14° WNW 03:35:35 69° NNE 03:39:44 10° E visible
30 May ? 01:30:22 13° ENE 01:30:22 13° ENE 01:30:53 10° ENE visible
30 May ? 03:11:47 25° WNW 03:14:00 71° NNE 03:18:05 10° E visible
31 May ? 02:51:40 55° NW 02:52:25 72° NNE 02:56:28 10° E visible
31 May ? 04:35:24 10° W 04:39:03 32° SSW 04:42:51 10° SE visible
31 May ? 21:05:36 10° SSW 21:09:02 23° SSE 21:09:02 23° SSE visible
01 Jun ? 02:31:53 46° E 02:31:53 46° E 02:34:50 10° E visible
01 Jun ? 04:13:50 10° W 04:17:25 31° SSW 04:21:08 10° SSE visible
01 Jun ? 20:43:38 10° SSW 20:48:15 26° SSE 20:50:41 18° ESE visible
01 Jun ? 22:29:52 10° WSW 22:32:13 26° WSW 22:32:13 26° WSW visible
